[Iaude] MPEC U37: 2016 UL5 [a=2.54,e=0.65,i=25.0,H=18.5]

mpec at si.edu mpec at si.edu
Sat Oct 22 19:18:11 EDT 2016


M.P.E.C. 2016-U37                                Issued 2016 Oct. 22, 23:13 UT
 
     The Minor Planet Electronic Circulars contain information on unusual
         minor planets and routine data on comets.  They are published
    on behalf of Division F of the International Astronomical Union by the
          Minor Planet Center, Smithsonian Astrophysical Observatory,
                          Cambridge, MA 02138, U.S.A.

             Prepared using the Tamkin Foundation Computer Network

                              MPC at CFA.HARVARD.EDU
            URL http://www.minorplanetcenter.net/    ISSN 1523-6714


                                   2016 UL5
 
Observations:
     K16U05L* C2016 10 19.23882 21 58 21.579-09 24 28.70         22.0 wLEU037F51
     K16U05L  C2016 10 19.26219 21 58 20.181-09 24 19.29         21.8 wLEU037F51
     K16U05L  C2016 10 19.27387 21 58 19.500-09 24 14.79         21.7 wLEU037F51
     K16U05L KC2016 10 20.07801021 57 34.69 -09 18 39.6          21.0 RtEU037W86
     K16U05L KC2016 10 20.08459121 57 34.31 -09 18 36.9          21.1 RtEU037W86
     K16U05L KC2016 10 20.09117321 57 33.94 -09 18 34.1          21.1 RtEU037W86
     K16U05L KC2016 10 20.19500 21 57 28.29 -09 17 58.6                oEU037291
     K16U05L KC2016 10 20.20078 21 57 27.96 -09 17 55.5                oEU037291
     K16U05L KC2016 10 20.20655 21 57 27.65 -09 17 53.2                oEU037291
     K16U05L KC2016 10 21.21045 21 56 34.56 -09 10 51.6          22.2 RoEU037291
     K16U05L KC2016 10 21.21593 21 56 34.23 -09 10 49.5          21.9 RoEU037291
     K16U05L KC2016 10 21.22142 21 56 33.93 -09 10 47.1          22.0 RoEU037291
     K16U05L KC2016 10 22.08167 21 55 50.93 -09 04 38.6                oEU037291
     K16U05L KC2016 10 22.09031 21 55 50.48 -09 04 35.0                oEU037291
 
Observer details:
291 LPL/Spacewatch II.  Observers J. V. Scotti, T. H. Bressi.  1.8-m f/2.7
    reflector + CCD.
F51 Pan-STARRS 1, Haleakala.  Observers B. Gibson, T. Goggia, S. Kahale,
    A. Schultz, M. Willman.  Measurers K. Chambers, S. Chastel, L. Denneau,
    H. Flewelling, M. Huber, E. Lilly, E. Magnier, R. Wainscoat, C. Waters,
    R. Weryk.  1.8-m Ritchey-Chretien + CCD.
W86 Cerro Tololo-LCOGT B.  Observers T. Lister, S. Greenstreet, E. Gomez.
    Measurer T. Lister.  1.0-m f/8 Ritchey-Chretien + CCD.
 
Orbital elements:
2016 UL5                                                 Earth MOID = 0.1079 AU
Epoch 2016 July 31.0 TT = JDT 2457600.5                 MPC
M 305.36408              (2000.0)            P               Q
n   0.24327099     Peri.  116.91138     -0.30280591     -0.95011555
a   2.5414164      Node   349.82697     +0.65277725     -0.14960915
e   0.6452704      Incl.   25.04163     +0.69439934     -0.27367415
P   4.05           H   18.5           G   0.15           U   7
Residuals in seconds of arc
161019 F51  0.1+  0.2+    161020 W86  0.4+  0.2-    161021 291  0.1-  0.1+
161019 F51  0.0   0.1+    161020 291  0.0   0.6-    161021 291  0.1-  0.2+
161019 F51  0.2+  0.1-    161020 291  0.1-  0.1+    161022 291  0.1+  0.0
161020 W86  0.4+  0.3-    161020 291  0.2+  0.0     161022 291  0.0   0.1-
161020 W86  0.3+  0.3-    161021 291  0.5+  0.3+

Ephemeris:
2016 UL5                 a,e,i = 2.54, 0.65, 25                  q = 0.9015
Date    TT    R. A. (2000) Decl.     Delta      r     Elong.  Phase     V
2016 09 22    22 37 49.0 -11 21 12   1.2366  2.1975   157.5    10.1    21.3
...
2016 10 07    22 13 03.6 -10 34 08   1.2277  2.0771   137.5    19.0    21.5
...
2016 10 15    22 02 45.3 -09 51 33   1.2429  2.0112   127.4    23.2    21.6
...
2016 10 21    21 56 45.6 -09 12 17   1.2606  1.9609   120.3    26.0    21.6
2016 10 22    21 55 54.9 -09 05 10   1.2640  1.9524   119.1    26.4    21.7
2016 10 23    21 55 06.7 -08 57 53   1.2674  1.9439   118.0    26.9    21.7
...
2016 10 29    21 51 14.1 -08 10 58   1.2898  1.8928   111.3    29.3    21.7
...
2016 11 06    21 48 32.6 -07 00 05   1.3224  1.8235   103.1    32.0    21.8
...
2016 11 21    21 50 33.5 -04 22 40   1.3820  1.6909    89.4    35.7    21.8

A. U. Tomatic                (C) Copyright 2016 MPC           M.P.E.C. 2016-U37




More information about the Iaude mailing list